This is the latest recevied weather packets stored in our database for station/object AK4NG. If no packets are shown the sender has not sent any weather packets the latest 10 day(s).
| Time | Temp. | Humidity | Pressure | Rain* | Wind** | Luminosity | Snow |
|---|---|---|---|---|---|---|---|
| 1777890534 | 9.44° C | 87% | 1018.4 hPa | 0 mm | - | 0 W/m² | - |
| 1777890229 | 9.44° C | 87% | 1018.4 hPa | 0 mm | - | 0 W/m² | - |
| 1777889926 | 9.44° C | 88% | 1018.4 hPa | 0 mm | - | 0 W/m² | - |
| 1777889624 | 9.44° C | 88% | 1018.4 hPa | 0 mm | - | 0 W/m² | - |
| 1777889321 | 9.44° C | 87% | 1018.4 hPa | 0 mm | - | 0 W/m² | - |
| 1777889018 | 10° C | 86% | 1018.3 hPa | 0 mm | - | 0 W/m² | - |
| 1777888716 | 10° C | 83% | 1018.5 hPa | 0 mm | - | 0 W/m² | - |
| 1777888411 | 10° C | 83% | 1018.5 hPa | 0 mm | - | 0 W/m² | - |
| 1777888108 | 10° C | 87% | 1018.6 hPa | 0 mm | - | 0 W/m² | - |
| 1777887805 | 10° C | 87% | 1018.5 hPa | 0 mm | - | 0 W/m² | - |
| 1777887502 | 9.44° C | 88% | 1018.5 hPa | 0 mm | - | 0 W/m² | - |
| 1777887198 | 9.44° C | 90% | 1018.4 hPa | 0 mm | - | 0 W/m² | - |
| 1777886894 | 9.44° C | 89% | 1018.5 hPa | 0 mm | - | 0 W/m² | - |
| 1777886589 | 9.44° C | 88% | 1018.3 hPa | 0 mm | - | 0 W/m² | - |
| 1777886287 | 9.44° C | 89% | 1018.5 hPa | 0 mm | - | 0 W/m² | - |
| 1777885985 | 8.89° C | 92% | 1018.7 hPa | 0 mm | - | 0 W/m² | - |
| 1777885684 | 8.89° C | 92% | 1018.3 hPa | 0 mm | - | 0 W/m² | - |
| 1777885381 | 8.89° C | 92% | 1018.4 hPa | 0 mm | - | 0 W/m² | - |
| 1777885080 | 8.89° C | 92% | 1018.3 hPa | 0 mm | - | 0 W/m² | - |
| 1777884776 | 8.89° C | 91% | 1018.4 hPa | 0 mm | - | 0 W/m² | - |
| 1777884471 | 8.89° C | 91% | 1018.5 hPa | 0 mm | - | 0 W/m² | - |
| 1777884169 | 8.89° C | 91% | 1018.5 hPa | 0 mm | - | 0 W/m² | - |
| 1777883866 | 8.89° C | 90% | 1018.5 hPa | 0 mm | - | 0 W/m² | - |
| 1777883563 | 8.89° C | 90% | 1018.4 hPa | 0 mm | - | 0 W/m² | - |
| 1777883258 | 8.89° C | 90% | 1018.4 hPa | 0 mm | - | 0 W/m² | - |
* Rain latest hour (hover to see other rain measurements)
** Current wind speed in m/s (hover to see current wind gust speed)